Hourly Data Report for April 04, 2021

OTTAWA INTL A
ONTARIO
Current Station Operator: NAVCAN

45°19'00.000" N
75°40'00.000" W
114.90 m
6106001
71628
YOW

Download Data

Hourly Data (April 2021)
Hourly Data Report for April 4, 2021
TIME
LST
Temp Definition
°C
Dew Point Definition
°C
Rel Hum Definition
%
Precip. Amount Definition
mm

Wind Dir Definition
10's deg

Wind Spd Definition
km/h
Visibility Definition
km
Stn Press Definition
kPa
Hmdx Definition


Wind Chill Definition


Weather Definition


00:00 3.0 -4.8 57   21 10 24.1 100.73     LegendNANA
01:00 3.0 -4.8 57   20 7 24.1 100.70     Mostly Cloudy
02:00 2.4 -5.0 58   19 6 24.1 100.68     LegendNANA
03:00 1.6 -4.8 62   20 9 24.1 100.65     LegendNANA
04:00 1.0 -4.8 65   20 9 24.1 100.63     Mostly Cloudy
05:00 0.2 -5.0 68   22 8 24.1 100.64     LegendNANA
06:00 0.2 -4.5 71   36 3 24.1 100.68     LegendNANA
07:00 2.8 -3.8 62   26 4 24.1 100.70     Mostly Cloudy
08:00 5.5 -4.2 50   29 7 24.1 100.71     LegendNANA
09:00 6.8 -4.5 44   33 7 24.1 100.74     LegendNANA
10:00 9.1 -4.1 39   5 5 24.1 100.73     Mostly Cloudy
11:00 10.2 -4.6 35   29 13 24.1 100.67     LegendNANA
12:00 10.9 -4.5 34   25 16 24.1 100.66     LegendNANA
13:00 10.7 -5.0 33   29 12 24.1 100.62     Mostly Cloudy
14:00 12.5 -4.0 31   31 20 24.1 100.57     LegendNANA
15:00 13.0 -3.1 32   27 12 24.1 100.50     LegendNANA
16:00 13.3 -2.1 34   30 22 24.1 100.45     Mainly Clear
17:00 13.1 -1.7 36   28 24 24.1 100.43     LegendNANA
18:00 12.1 -2.1 37   30 15 24.1 100.45     LegendNANA
19:00 10.4 -1.7 43   34 13 24.1 100.47     Mainly Clear
20:00 8.5 -2.4 46   32 12 24.1 100.51     LegendNANA
21:00 9.4 -2.5 43   34 17 24.1 100.55     LegendNANA
22:00 8.6 -2.0 47   35 16 24.1 100.56     Clear
23:00 7.3 -1.5 53   34 18 24.1 100.57     LegendNANA

Notes on Data Quality.

Legend

  • E = Estimated
  • M = Missing
  • NA = Not Available*
  • [empty] = Indicates an unobserved value
Date modified: